User: anonymous   Login
Location: Mauna Kea VIS
(19.7591°N, 155.4561°W)
Time: 15:21:18
(UTC-10:00)
Language:

Cosmos 1624 Rocket - Orbit

View from above orbital plane
View from above orbital plane
View from above satellite
View from above satellite

Ground track
Ground track

The orbit data is extracted from the following two-line orbital elements,

1 15483U 85006B   15026.53246163  .00000147  00000-0  59716-4 0  4274
2 15483 074.0466 156.5726 0019347 349.3687 081.5935 14.35957546571289
Epoch (UTC): 26 January 2015 12:46:44
Eccentricity: 0.0019347
inclination: 74.0466°
perigee height: 758 km
apogee height: 786 km
right ascension of ascending node: 156.5726°
argument of perigee: 349.3687°
revolutions per day: 14.35957546
mean anomaly at epoch: 81.5935°
orbit number at epoch: 57128

The dashed part of the orbit path shows where the satellite is in the earth's shadow,  

DLR